Location: Newark
(50.4348°N, 30.5552°E)
Time: 15:19:30
(UTC+00:00)

Transit 2A Rocket - Pass Details

Date: 28 January 2020
Orbit: 592 x 911 km, 66.7° (Epoch: 16 February)

Event Time Altitude Azimuth Distance (km) Brightness Sun altitude
Exits shadow 03:50:43 35° 279° (W) 977 5.0 -17.2°
Maximum altitude 03:51:48 42° 316° (NW) 865 4.9 -17.0°
Drops below altitude 10° 03:56:01 10° 28° (NNE) 1,989 7.4 -16.3°
Sets 03:58:28 0° 35° (NE) 2,933 8.4 -15.9°
